This is the latest recevied weather packets stored in our database for station/object KM4KBD. If no packets are shown the sender has not sent any weather packets the latest 10 day(s).
| Time | Temp. | Humidity | Pressure | Rain* | Wind** | Luminosity | Snow |
|---|---|---|---|---|---|---|---|
| 1778006817 | 21.67° C | 55% | 1017 hPa | 0 mm | - | 317 W/m² | - |
| 1778005909 | 21.67° C | 54% | 1017 hPa | 0 mm | - | 321 W/m² | - |
| 1778004998 | 21.67° C | 57% | 1017.1 hPa | 0 mm | - | 358 W/m² | - |
| 1778004392 | 21.67° C | 57% | 1017.2 hPa | 0 mm | - | 294 W/m² | - |
| 1778002571 | 21.67° C | 58% | 1017.7 hPa | 0 mm | - | 471 W/m² | - |
| 1778002268 | 21.11° C | 59% | 1017.7 hPa | 0 mm | - | 377 W/m² | - |
| 1778001966 | 21.67° C | 57% | 1017.7 hPa | 0 mm | - | 304 W/m² | - |
| 1778001662 | 21.67° C | 57% | 1017.7 hPa | 0 mm | - | 328 W/m² | - |
| 1778001357 | 21.67° C | 58% | 1017.8 hPa | 0 mm | - | 376 W/m² | - |
| 1778000751 | 21.67° C | 57% | 1018 hPa | 0 mm | - | 357 W/m² | - |
| 1777998931 | 21.67° C | 58% | 1017.9 hPa | 0 mm | - | 346 W/m² | - |
| 1777998627 | 21.11° C | 59% | 1017.9 hPa | 0 mm | - | 333 W/m² | - |
| 1777998321 | 21.11° C | 58% | 1018.1 hPa | 0 mm | - | 318 W/m² | - |
| 1777997110 | 21.67° C | 58% | 1018.1 hPa | 0 mm | - | 415 W/m² | - |
| 1777995896 | 21.11° C | 59% | 1018.1 hPa | 0 mm | - | 449 W/m² | - |
| 1777995591 | 21.11° C | 58% | 1017.8 hPa | 0 mm | - | 432 W/m² | - |
| 1777995290 | 20.56° C | 58% | 1017.7 hPa | 0 mm | - | 395 W/m² | - |
| 1777994986 | 20.56° C | 60% | 1017.8 hPa | 0 mm | - | 369 W/m² | - |
| 1777994683 | 20.56° C | 60% | 1017.9 hPa | 0 mm | - | 347 W/m² | - |
| 1777994383 | 20.56° C | 60% | 1017.7 hPa | 0 mm | - | 305 W/m² | - |
| 1777994079 | 20.56° C | 59% | 1017.7 hPa | 0 mm | - | 287 W/m² | - |
| 1777993777 | 20.56° C | 59% | 1017.5 hPa | 0 mm | - | 285 W/m² | - |
| 1777993474 | 20.56° C | 59% | 1017.8 hPa | 0 mm | - | 306 W/m² | - |
| 1777993173 | 20.56° C | 59% | 1017.6 hPa | 0 mm | - | 346 W/m² | - |
| 1777992871 | 20.56° C | 60% | 1017.8 hPa | 0 mm | - | 345 W/m² | - |
* Rain latest hour (hover to see other rain measurements)
** Current wind speed in m/s (hover to see current wind gust speed)